Retour au catalogue

BREEZE-M DEB

LostHEO
NORAD 34229·DEBRIS·🇷🇺 Russia

Lancé Feb 28, 2006 depuis Baikonur Cosmodrome

Loading…

Prochains Passages (prochaines 24 heures)

TLE

PériméSource: Space-Track

Époque: May 17, 2026, 11:57 UTC

1 34229U 06006AU  26137.49794533  .00014505  00000-0  35145-2 0  9990
2 34229  51.3538  68.0775 3688740 179.4052 181.3241  7.84570615283729

Suivez BREEZE-M DEB en temps réel avec AllMySat

Download on the App Store